Domov               UVHVVR             MKGP            O straneh              
ZDRAVSTVENO VARSTVO RASTLIN
  MREŽA AGROMET. POSTAJ
 ► PROGNOSTIČNA OBVESTILA
AGROMETEOROLOŠKI PODATKI -
ARSO
OBVLADOVANJE TVEGANJ ZARADI
NEUGODNIH VREMENSKIH RAZMER
  ► NARAVNE NESREČE
  ► SUŠA/MOČA
  ► NAMAKANJE
  ► ŽLED (gozdarstvo)
KARTOGRAFSKI PRIKAZI
SPLETNE POVEZAVE
PROJEKTI IN PUBLIKACIJE

AGROMETEOROLOŠKA MREŽA: VREMENSKE POSTAJE IN FENOLOŠKA OPAZOVANJA

Pregled podatkov za lokacijo Selo, meteorološka postaja 37838

Pregled senzorjev na lokaciji

ID Ime Zadnja
vrednost
Datum
zadnje
spremembe
Tip
senzorja
4044 Omočenost lista (U) 0 U 17.8.2017 07:00 A730WET
4045 Padavine 0.2 mm (mm) 0 mm 17.8.2017 07:00 Rain-O-Matic
4046 Temperatura 2 m ( °C) 18,41 °C 17.8.2017 07:00 50YA
4047 Relativna vlaga 2 m (% RH) 74,02 % RH 17.8.2017 07:00 50YA

Pregled podatkov zadnjih 24 ur

Zap.
št.
Datum in čas Selo
Omočenost
lista
Padavine
0.2
mm
Relativna
vlaga
2
m
Temperatura
2
m
0 17.8.2017 06:00 0 0 73,52 18,42
1 17.8.2017 05:30 0 0 73,15 18,41
2 17.8.2017 05:00 0 0 71,62 18,63
3 17.8.2017 04:30 0 0 70,92 18,89
4 17.8.2017 04:00 0 0 70,29 19,12
5 17.8.2017 03:30 0 0 70,88 19,19
6 17.8.2017 03:00 0 0 71,28 19,27
7 17.8.2017 02:30 0 0 71,27 19,61
8 17.8.2017 02:00 0 0 71,44 19,71
9 17.8.2017 01:30 0 0 71,6 19,8
10 17.8.2017 01:00 0 0 74,33 19,45
11 17.8.2017 00:30 0 0 75,08 19,51
12 17.8.2017 00:00 0 0 75,09 19,82
13 16.8.2017 23:30 0 0 75,53 20
14 16.8.2017 23:00 0 0 74,2 20,15
15 16.8.2017 22:30 0 0 72,99 20,39
16 16.8.2017 22:00 0 0 72,04 20,51
17 16.8.2017 21:30 0 0 71,37 20,72
18 16.8.2017 21:00 0 0 67,5 21,37
19 16.8.2017 20:30 0 0 64,88 21,88
20 16.8.2017 20:00 0 0 64,4 22,21
21 16.8.2017 19:30 0 0 63,91 22,43
22 16.8.2017 19:00 0 0 58,36 23,46
23 16.8.2017 18:30 0 0 55,92 24,26
24 16.8.2017 18:00 0 0 52,67 25,31
25 16.8.2017 17:30 0 0 46,23 26,37
26 16.8.2017 17:00 0 0 44,1 27,11
27 16.8.2017 16:30 0 0 33,8 28,79
28 16.8.2017 16:00 0 0 33,28 29,01
29 16.8.2017 15:30 0 0 32,77 29,11
30 16.8.2017 15:00 0 0 32,21 28,67
31 16.8.2017 14:30 0 0 32,09 28,57
32 16.8.2017 14:00 0 0 32,26 28,72
33 16.8.2017 13:30 0 0 36,02 28,5
34 16.8.2017 13:00 0 0 37,53 28,08
35 16.8.2017 12:30 0 0 35,43 27,74
36 16.8.2017 12:00 0 0 37,94 26,95
37 16.8.2017 11:30 0 0 40,89 26,81
38 16.8.2017 11:00 0 0 40,79 26,5
39 16.8.2017 10:30 0 0 42,63 26,46
40 16.8.2017 10:00 0 0 46,7 25,52
41 16.8.2017 09:30 0 0 48,13 24,8
42 16.8.2017 09:00 0 0 50,18 23,61
43 16.8.2017 08:30 0 0 56,17 22,67
44 16.8.2017 08:00 0 0 59,96 21,83
© 2011 Ministrstvo za kmetijstvo, gozdarstvo in prehrano. Vse pravice pridržane.